This is the latest recevied weather packets stored in our database for station/object WB5RFA. If no packets are shown the sender has not sent any weather packets the latest 10 day(s).
| Time | Temp. | Humidity | Pressure | Rain* | Wind** | Luminosity | Snow |
|---|---|---|---|---|---|---|---|
| 1777602071 | 12.78° C | 60% | 1016.5 hPa | 0 mm | - | - | - |
| 1777601592 | 12.78° C | 59% | 1016.3 hPa | 0 mm | - | - | - |
| 1777601111 | 12.78° C | 58% | 1016.2 hPa | 0 mm | - | - | - |
| 1777600630 | 13.33° C | 59% | 1016.2 hPa | 0 mm | - | - | - |
| 1777600151 | 13.33° C | 58% | 1016.1 hPa | 0 mm | - | - | - |
| 1777599670 | 13.33° C | 58% | 1016 hPa | 0 mm | - | - | - |
| 1777599192 | 13.89° C | 57% | 1015.7 hPa | 0 mm | - | - | - |
| 1777598711 | 13.89° C | 56% | 1015.7 hPa | 0 mm | - | - | - |
| 1777598232 | 14.44° C | 55% | 1015.6 hPa | 0 mm | - | - | - |
| 1777597751 | 14.44° C | 56% | 1015.5 hPa | 0 mm | - | - | - |
| 1777597272 | 14.44° C | 57% | 1015.4 hPa | 0 mm | - | - | - |
| 1777596792 | 15° C | 57% | 1015.3 hPa | 0 mm | - | - | - |
| 1777596311 | 15° C | 57% | 1015.3 hPa | 0 mm | - | - | - |
| 1777595832 | 15° C | 56% | 1015.1 hPa | 0 mm | - | - | - |
| 1777595351 | 15.56° C | 56% | 1015 hPa | 0 mm | - | - | - |
| 1777594871 | 15.56° C | 56% | 1014.9 hPa | 0 mm | - | - | - |
| 1777594390 | 16.11° C | 56% | 1014.9 hPa | 0 mm | - | - | - |
| 1777593912 | 16.11° C | 55% | 1014.8 hPa | 0 mm | - | - | - |
| 1777593431 | 16.67° C | 53% | 1014.7 hPa | 0 mm | - | - | - |
| 1777592950 | 16.67° C | 51% | 1014.6 hPa | 0 mm | - | - | - |
| 1777592471 | 16.67° C | 51% | 1014.5 hPa | 0 mm | - | - | - |
| 1777591990 | 17.22° C | 50% | 1014.5 hPa | 0 mm | - | - | - |
| 1777591512 | 17.22° C | 51% | 1014.4 hPa | 0 mm | - | - | - |
| 1777591031 | 17.78° C | 50% | 1014.3 hPa | 0 mm | - | - | - |
| 1777590550 | 17.78° C | 49% | 1014.2 hPa | 0 mm | - | - | - |
* Rain latest hour (hover to see other rain measurements)
** Current wind speed in m/s (hover to see current wind gust speed)